CDT,Max TemperatureF,Mean TemperatureF,Min TemperatureF,Max Dew PointF,MeanDew PointF,Min DewpointF,Max Humidity, Mean Humidity, Min Humidity, Max Sea Level PressureIn, Mean Sea Level PressureIn, Min Sea Level PressureIn, Max VisibilityMiles, Mean VisibilityMiles, Min VisibilityMiles, Max Wind SpeedMPH, Mean Wind SpeedMPH, Max Gust SpeedMPH,PrecipitationIn, CloudCover, Events, WindDirDegrees
2012-10-1,69,56,39,47,39,29,79,52,25,30.01,29.94,29.85,10,10,10,20,8,33,0.00,1,,342
2012-10-2,72,52,33,38,32,30,89,52,22,30.00,29.91,29.82,10,10,10,18,5,26,0.00,0,,189
2012-10-3,78,60,43,43,34,27,71,42,17,29.91,29.87,29.82,10,10,10,12,4,,0.00,0,,127
2012-10-4,63,50,37,43,33,27,79,64,42,30.10,29.88,29.62,10,10,7,25,16,40,0.00,7,,265
2012-10-5,42,38,35,31,26,24,82,63,49,30.18,30.11,30.06,10,10,9,21,16,34,0.00,8,Rain-Snow,290
2012-10-6,46,36,25,31,27,19,87,71,37,30.32,30.22,30.14,10,8,1,14,9,21,0.04,7,Snow,342
2012-10-7,53,40,27,23,19,14,78,51,21,30.22,30.03,29.84,10,10,10,15,7,24,0.00,0,,200
2012-10-8,53,44,35,41,30,18,82,57,41,29.81,29.67,29.57,10,10,7,18,7,29,0.03,5,Rain,210
2012-10-9,45,40,35,35,30,24,86,66,49,29.99,29.80,29.70,10,10,5,24,10,29,0.01,5,Rain,276
2012-10-10,48,39,30,32,26,20,85,60,34,30.07,30.01,29.92,10,10,10,15,8,20,0.00,4,Rain,277
2012-10-11,46,39,28,34,27,18,87,68,35,30.43,30.10,29.87,10,10,10,20,9,24,0.00,4,,344
2012-10-12,51,34,19,25,16,11,89,50,21,30.46,30.30,29.98,10,10,10,20,5,25,0.00,1,,172
2012-10-13,60,48,37,43,36,16,93,69,27,29.94,29.78,29.69,10,7,0,14,8,24,0.00,4,Fog,148
2012-10-14,59,47,37,41,37,32,93,77,39,29.92,29.85,29.78,10,6,0,14,4,22,0.00,4,Fog,360
2012-10-15,61,44,28,35,33,26,92,59,38,29.97,29.87,29.67,10,10,6,10,4,25,0.00,2,,183
2012-10-16,72,60,48,45,43,36,80,58,35,29.64,29.49,29.36,10,10,10,12,6,,0.02,3,Rain,167
2012-10-17,59,52,46,49,45,39,88,79,67,29.36,29.20,29.07,10,8,2,20,7,26,0.04,7,Rain,225
2012-10-18,50,48,45,45,43,39,87,84,79,29.44,29.26,29.18,10,8,2,9,5,,0.16,8,Rain,296
2012-10-19,51,48,45,46,44,42,93,86,77,29.75,29.61,29.43,10,8,3,9,4,,0.15,8,Rain,356
2012-10-20,52,46,41,43,40,38,93,83,66,29.80,29.77,29.73,10,7,0,13,3,18,0.01,8,Fog,178
2012-10-21,63,53,44,44,42,40,86,69,44,29.96,29.85,29.80,10,9,5,13,6,,0.00,1,,126
2012-10-22,57,52,48,46,43,41,87,73,60,30.07,30.00,29.94,10,10,10,16,9,22,0.00,6,,48
2012-10-23,57,52,48,54,47,42,94,88,74,29.90,29.77,29.70,10,3,1,8,6,,0.05,8,Rain,88
2012-10-24,57,50,44,55,46,36,94,81,71,29.92,29.85,29.76,10,9,2,16,7,22,0.00,8,Rain,324
2012-10-25,44,38,33,36,30,24,89,78,57,30.10,29.88,29.82,10,7,1,21,15,28,0.26,8,Rain-Snow,325
2012-10-26,41,36,32,25,19,14,65,51,36,30.34,30.25,30.07,10,10,10,20,14,29,0.00,8,,269
2012-10-27,41,33,27,23,19,15,75,56,38,30.37,30.33,30.30,10,10,9,10,5,,0.00,5,,244
2012-10-28,39,34,30,34,29,22,93,79,62,30.34,30.30,30.26,10,5,1,8,4,,0.04,8,Snow,180
2012-10-29,46,37,28,25,22,20,78,52,36,30.33,30.30,30.27,10,10,10,12,5,18,0.00,6,,136
2012-10-30,46,36,26,32,27,24,93,78,52,30.30,30.20,30.09,10,7,1,8,3,,0.00,1,,46
2012-10-31,51,34,19,29,22,15,93,64,33,30.14,30.05,29.96,10,10,9,7,0,,0.00,3,,330